QPF
0.00 0.00 0.00 0.00 0.00 0.00 0.00 0.00 0.00 0.00 0.00 0.00 0.00 0.00 0.00 0.00 0.00 0.00 0.00 0.00 0.00 0.00 0.00 0.00 0.00 0.00 0.00 0.00 0.00 0.00 0.00 0.00
0.00 0.00 0.00 0.00 0.00 0.00 0.00 0.00 0.00 0.00 0.00 0.00 0.00 0.00 0.00 0.00 0.00 0.00 0.00 0.00 0.00 0.00 0.00 0.00 0.00 0.00 0.00 0.00 0.00 0.00 0.00 0.00
0.00 0.00 0.00 0.00 0.00 0.00 0.00 0.00 0.00 0.00 0.00 0.00 0.00 0.00 0.00 0.00 0.00 0.00 0.00 0.00 0.00 0.00 0.00 0.00 0.00 0.00 0.00 0.00 0.00 0.00 0.00 0.00
0.00 0.00 0.00 0.00 0.00 0.00 0.00 0.00 0.00 0.00 0.00 0.00 0.00 0.00 0.00 0.00 0.00 0.00 0.00 0.00 0.00 0.00 0.00 0.00 0.00 0.00 0.00 0.00 0.00 0.00 0.00 0.00
0.00 0.00 0.00 0.00 0.00 0.00 0.00 0.00 0.00 0.00 0.00 0.00 0.00 0.00 0.00 0.00 0.00 0.00 0.00 0.00 0.00 0.00 0.00 0.00 0.00 0.00 0.00 0.00 0.00 0.00 0.00 0.00
0.00 0.00 0.00 0.00 0.00 0.00 0.00 0.00 0.00 0.00 0.00 0.00 0.00 0.00 0.00 0.00 0.00 0.00 0.00 0.00 0.00 0.00 0.00 0.00 0.00 0.00 0.00 0.00 0.00 0.00 0.00 0.00
0.00 0.00 0.00 0.00 0.00 0.00 0.00 0.00 0.00 0.00 0.00 0.00 0.00 0.00 0.00 0.00 0.00 0.00 0.00 0.00 0.00 0.00 0.00 0.00 0.00 0.00 0.00 0.00 0.00 0.00 0.00 0.00
0.00 0.00 0.00 0.00 0.00 0.00 0.00 0.00 0.00 0.00 0.00 0.00 0.00 0.00 0.00 0.00 0.00 0.00 0.00 0.00 0.00 0.00 0.00 0.00 0.00 0.00 0.00 0.00 0.00 0.00 0.00 0.00
0.00 0.00 0.00 0.00 0.00 0.00 0.00 0.00 0.00 0.00 0.00 0.00 0.00 0.00 0.00 0.00 0.00 0.00 0.00 0.00 0.00 0.00 0.00 0.00 0.00 0.00 0.00 0.00 0.00 0.00 0.00 0.00
0.00 0.00 0.01 0.00 0.00 0.00 0.00 0.00 0.00 0.00 0.00 0.00 0.00 0.00 0.00 0.00 0.00 0.00 0.00 0.00 0.00 0.00 0.00 0.00 0.00 0.00 0.00 0.00 0.00 0.00 0.00 0.00
0.00 0.00 0.02 0.08 0.05 0.09 0.05 0.01 0.00 0.00 0.00 0.00 0.00 0.00 0.00 0.00 0.00 0.00 0.00 0.00 0.00 0.00 0.00 0.00 0.00 0.00 0.00 0.00 0.00 0.00 0.00 0.00
0.00 0.00 0.00 0.06 0.09 0.03 0.03 0.00 0.00 0.00 0.00 0.00 0.00 0.00 0.00 0.00 0.00 0.00 0.00 0.00 0.00 0.00 0.00 0.00 0.00 0.00 0.00 0.00 0.00 0.00 0.00 0.00
0.00 0.00 0.01 0.01 0.03 0.01 0.01 0.01 0.00 0.00 0.00 0.00 0.00 0.00 0.00 0.00 0.00 0.00 0.00 0.00 0.00 0.00 0.00 0.00 0.00 0.00 0.00 0.00 0.00 0.00 0.00 0.00
0.00 0.01 0.01 0.01 0.01 0.01 0.04 0.07 0.06 0.01 0.00 0.00 0.00 0.00 0.00 0.00 0.00 0.00 0.00 0.00 0.00 0.00 0.00 0.00 0.00 0.00 0.00 0.00 0.00 0.00 0.00 0.00
0.00 0.00 0.02 0.01 0.02 0.01 0.00 0.03 0.02 0.00 0.00 0.00 0.00 0.00 0.00 0.00 0.00 0.00 0.00 0.00 0.00 0.00 0.00 0.00 0.00 0.00 0.00 0.00 0.00 0.00 0.00 0.00
0.00 0.00 0.00 0.01 0.02 0.01 0.01 0.00 0.00 0.01 0.01 0.02 0.02 0.00 0.00 0.00 0.00 0.00 0.00 0.00 0.00 0.00 0.00 0.00 0.00 0.00 0.00 0.00 0.00 0.00 0.00 0.00
0.09 0.06 0.04 0.03 0.01 0.00 0.00 0.00 0.01 0.02 0.03 0.03 0.02 0.00 0.00 0.00 0.00 0.00 0.00 0.00 0.00 0.00 0.00 0.00 0.00 0.00 0.00 0.00 0.00 0.00 0.00 0.00
0.11 0.09 0.07 0.05 0.02 0.00 0.00 0.00 0.00 0.00 0.01 0.03 0.03 0.01 0.00 0.00 0.00 0.00 0.00 0.00 0.00 0.00 0.00 0.00 0.00 0.00 0.00 0.00 0.00 0.00 0.00 0.00
0.16 0.12 0.08 0.05 0.03 0.01 0.00 0.00 0.00 0.00 0.00 0.01 0.02 0.02 0.02 0.00 0.00 0.00 0.00 0.00 0.00 0.00 0.00 0.00 0.00 0.00 0.00 0.00 0.00 0.00 0.00 0.00
0.12 0.09 0.07 0.04 0.01 0.00 0.00 0.00 0.00 0.00 0.00 0.00 0.00 0.01 0.01 0.00 0.00 0.00 0.00 0.00 0.00 0.00 0.00 0.00 0.00 0.00 0.00 0.00 0.00 0.00 0.00 0.00
MSLP
1010.89 1011.52 1011.88 1012.28 1012.61 1013.08 1013.60 1013.92 1014.22 1014.85 1015.16 1015.54 1016.17 1016.65 1016.83 1017.25 1017.75 1018.04 1018.32 1018.62 1018.81 1018.89 1018.94 1018.94 1018.88 1018.74 1018.72 1018.92 1019.23 1019.55 1019.69 1019.95
1010.96 1011.48 1011.98 1012.51 1012.75 1013.02 1013.47 1014.00 1014.28 1014.71 1015.19 1015.63 1016.47 1016.85 1017.07 1017.25 1017.68 1018.13 1018.57 1018.81 1018.89 1019.06 1019.14 1019.07 1019.00 1018.88 1018.76 1019.05 1019.41 1019.93 1020.27 1020.47
1010.85 1011.27 1011.62 1012.27 1012.72 1013.12 1013.62 1014.04 1014.43 1014.87 1015.22 1015.70 1016.50 1016.86 1017.26 1017.52 1017.79 1018.04 1018.42 1018.79 1019.10 1019.16 1019.19 1019.19 1019.20 1019.12 1019.01 1019.38 1019.81 1020.56 1020.94 1021.21
1010.81 1011.31 1011.57 1011.98 1012.63 1013.19 1013.64 1014.13 1014.58 1015.01 1015.35 1015.80 1016.38 1016.86 1017.13 1017.49 1017.84 1018.24 1018.44 1018.60 1018.80 1019.08 1019.33 1019.44 1019.30 1019.45 1019.48 1019.89 1020.42 1020.97 1021.30 1021.76
1010.67 1011.09 1011.20 1011.83 1012.63 1013.18 1013.59 1014.10 1014.60 1014.98 1015.29 1015.80 1016.25 1016.64 1017.21 1017.60 1017.90 1018.04 1018.44 1018.68 1018.79 1018.93 1019.25 1019.48 1019.54 1019.62 1019.66 1020.31 1020.90 1021.28 1021.74 1022.14
1010.51 1010.86 1011.11 1011.68 1012.36 1012.87 1013.39 1013.62 1014.31 1014.78 1015.12 1015.58 1016.03 1016.67 1017.15 1017.76 1018.11 1018.15 1018.21 1018.29 1018.72 1019.12 1019.37 1019.32 1019.40 1019.44 1019.70 1020.28 1020.97 1021.59 1022.07 1022.57
1009.62 1010.36 1010.71 1011.26 1012.05 1012.57 1012.99 1013.16 1013.72 1014.25 1014.68 1015.20 1015.49 1016.07 1016.70 1017.21 1017.68 1017.90 1018.09 1018.18 1018.45 1018.89 1019.04 1019.42 1019.60 1019.71 1019.98 1020.44 1021.08 1021.73 1022.25 1022.78
1009.11 1009.79 1010.34 1010.66 1011.34 1011.97 1012.53 1012.75 1013.20 1013.77 1014.12 1014.67 1015.07 1015.44 1015.95 1016.51 1017.00 1017.29 1017.68 1017.80 1018.10 1018.47 1019.00 1019.45 1019.78 1020.04 1020.37 1020.65 1021.38 1022.01 1022.44 1022.87
1008.61 1009.38 1010.01 1010.43 1010.83 1011.42 1011.80 1012.11 1012.62 1013.15 1013.48 1014.08 1014.47 1014.82 1015.52 1016.02 1016.47 1016.96 1017.18 1017.53 1018.03 1018.42 1018.92 1019.41 1019.96 1020.15 1020.74 1020.96 1021.34 1022.13 1022.72 1023.14
1008.22 1008.95 1009.55 1010.06 1010.26 1010.77 1011.20 1011.65 1012.04 1012.63 1013.01 1013.63 1014.06 1014.45 1014.98 1015.55 1016.11 1016.66 1017.00 1017.37 1017.82 1018.42 1019.04 1019.49 1019.97 1020.38 1020.83 1021.18 1021.59 1021.92 1022.61 1023.14
1006.77 1008.25 1008.89 1009.45 1010.13 1010.46 1010.76 1011.20 1011.89 1012.39 1012.84 1013.41 1013.90 1014.26 1014.59 1015.17 1015.73 1016.35 1016.68 1017.22 1017.73 1018.32 1018.92 1019.34 1020.09 1020.54 1021.05 1021.47 1021.77 1022.13 1022.50 1022.75
1005.48 1006.17 1007.89 1008.93 1009.69 1010.07 1010.42 1010.78 1011.39 1012.03 1012.55 1013.10 1013.78 1014.16 1014.41 1014.92 1015.46 1016.09 1016.45 1017.17 1017.71 1018.19 1018.69 1019.24 1019.67 1020.40 1020.96 1021.71 1021.96 1022.29 1022.67 1022.99
1004.75 1005.59 1006.51 1008.04 1008.93 1009.58 1010.12 1010.57 1011.25 1012.00 1012.44 1012.74 1013.49 1013.91 1014.27 1014.80 1015.36 1015.53 1016.22 1016.95 1017.35 1017.83 1018.46 1019.02 1019.69 1020.04 1021.22 1022.21 1022.66 1022.58 1022.69 1022.93
1004.04 1004.64 1005.36 1006.62 1007.73 1008.48 1009.58 1010.54 1011.12 1011.65 1012.29 1012.66 1013.24 1013.92 1014.27 1014.71 1015.11 1015.41 1015.88 1016.70 1017.15 1017.50 1017.86 1018.80 1019.39 1019.59 1020.70 1021.93 1022.86 1023.11 1022.92 1023.00
1002.27 1003.06 1003.89 1005.18 1006.77 1008.02 1009.27 1010.42 1011.23 1011.73 1012.16 1012.60 1012.91 1013.49 1014.16 1014.48 1014.68 1015.05 1015.56 1016.13 1016.79 1017.17 1017.54 1018.03 1018.96 1019.54 1019.56 1020.35 1021.81 1022.16 1022.66 1023.16
1001.50 1002.56 1003.64 1004.47 1005.92 1007.19 1007.79 1009.08 1010.20 1010.88 1011.60 1012.38 1013.15 1013.39 1013.94 1014.31 1014.46 1014.69 1015.29 1015.80 1016.32 1016.88 1017.33 1017.66 1018.12 1019.08 1019.68 1019.72 1020.09 1020.60 1021.86 1023.26
1001.57 1002.74 1003.89 1004.54 1005.05 1005.89 1007.00 1008.22 1009.36 1010.25 1011.38 1012.33 1013.07 1013.60 1013.90 1014.37 1014.64 1014.83 1015.24 1015.63 1016.05 1016.49 1017.34 1017.63 1017.84 1018.64 1019.03 1019.69 1020.03 1020.31 1020.65 1021.66
1001.59 1002.51 1003.87 1004.58 1005.18 1005.55 1006.34 1007.37 1008.57 1009.82 1011.01 1012.03 1012.99 1013.52 1014.04 1014.49 1014.78 1015.16 1015.38 1015.82 1016.21 1016.52 1017.18 1017.61 1017.78 1018.10 1018.55 1018.95 1019.36 1019.92 1020.41 1020.86
1002.58 1003.03 1003.86 1004.54 1005.52 1006.15 1006.51 1007.06 1007.84 1008.90 1010.11 1011.24 1012.26 1013.16 1013.78 1014.30 1014.87 1015.34 1015.60 1015.76 1016.34 1016.70 1017.19 1017.81 1017.95 1018.13 1018.78 1019.27 1019.38 1019.74 1019.87 1020.44
1003.45 1003.67 1003.79 1003.99 1005.27 1005.83 1006.49 1006.98 1007.59 1008.33 1009.49 1010.59 1011.67 1012.52 1013.19 1013.96 1014.69 1015.17 1015.84 1016.26 1016.61 1017.14 1017.97 1018.30 1018.65 1018.48 1018.92 1019.43 1019.97 1020.24 1020.23 1020.45
Thickness
5753 5747 5744 5741 5738 5733 5729 5726 5724 5718 5715 5711 5706 5701 5700 5697 5693 5691 5688 5686 5686 5687 5686 5686 5687 5688 5688 5687 5686 5680 5681 5677
5748 5744 5740 5735 5733 5730 5727 5722 5720 5716 5712 5708 5701 5697 5695 5694 5690 5688 5684 5682 5682 5681 5682 5683 5683 5683 5683 5684 5681 5673 5673 5670
5745 5742 5739 5734 5729 5725 5721 5718 5715 5711 5708 5704 5697 5694 5690 5688 5686 5684 5682 5679 5677 5676 5676 5677 5677 5677 5677 5677 5675 5666 5663 5661
5739 5736 5734 5731 5725 5720 5717 5713 5709 5706 5703 5700 5694 5690 5688 5684 5681 5678 5677 5676 5675 5673 5671 5670 5671 5670 5669 5669 5665 5658 5657 5651
5732 5731 5730 5725 5720 5715 5712 5708 5705 5701 5699 5695 5690 5687 5683 5680 5678 5676 5674 5671 5671 5669 5667 5666 5665 5664 5662 5662 5655 5651 5648 5644
5726 5726 5724 5720 5716 5712 5708 5706 5701 5698 5695 5692 5687 5683 5679 5675 5671 5672 5671 5670 5667 5663 5661 5661 5660 5659 5657 5655 5650 5644 5639 5635
5727 5723 5720 5717 5712 5708 5705 5704 5701 5696 5694 5690 5687 5682 5677 5674 5669 5668 5665 5665 5662 5659 5657 5654 5652 5650 5648 5647 5642 5636 5631 5626
5723 5720 5717 5715 5711 5707 5702 5700 5699 5693 5691 5688 5685 5681 5677 5673 5668 5666 5662 5660 5658 5655 5651 5647 5644 5641 5638 5636 5632 5626 5623 5617
5718 5714 5710 5707 5707 5702 5700 5698 5695 5691 5688 5685 5683 5680 5674 5670 5667 5663 5660 5655 5652 5648 5644 5640 5635 5632 5629 5626 5622 5617 5612 5608
5712 5707 5703 5700 5703 5699 5696 5693 5692 5689 5686 5681 5678 5676 5671 5667 5663 5658 5653 5650 5646 5641 5636 5631 5627 5622 5619 5617 5613 5609 5604 5599
5714 5703 5699 5694 5691 5691 5689 5686 5684 5682 5680 5674 5671 5669 5665 5661 5657 5652 5647 5644 5639 5634 5628 5624 5618 5614 5610 5606 5603 5599 5594 5593
5716 5711 5698 5690 5683 5683 5682 5680 5679 5676 5674 5669 5663 5661 5658 5654 5651 5646 5640 5636 5629 5625 5621 5617 5612 5606 5603 5596 5593 5590 5586 5582
5713 5704 5700 5687 5680 5674 5674 5674 5669 5666 5665 5663 5656 5653 5649 5647 5642 5639 5634 5628 5624 5619 5614 5609 5604 5600 5590 5581 5578 5579 5578 5575
5708 5703 5697 5687 5678 5672 5664 5659 5657 5656 5654 5652 5647 5641 5639 5638 5635 5630 5628 5621 5617 5613 5610 5603 5597 5595 5585 5575 5565 5565 5566 5565
5712 5708 5700 5688 5675 5664 5654 5645 5642 5643 5645 5644 5640 5634 5628 5628 5627 5622 5620 5617 5611 5607 5603 5600 5591 5587 5586 5579 5562 5561 5557 5554
5705 5697 5687 5679 5669 5659 5655 5647 5641 5641 5637 5634 5627 5623 5618 5617 5618 5615 5612 5609 5604 5600 5596 5592 5587 5580 5576 5575 5571 5568 5556 5543
5692 5679 5671 5665 5663 5657 5650 5642 5637 5630 5625 5620 5613 5609 5608 5604 5604 5603 5601 5599 5595 5592 5584 5582 5578 5573 5569 5564 5561 5558 5556 5547
5677 5670 5657 5650 5646 5647 5644 5637 5629 5622 5615 5609 5602 5598 5595 5591 5590 5587 5586 5584 5582 5580 5574 5570 5569 5565 5562 5559 5555 5549 5543 5539
5656 5653 5645 5637 5629 5627 5629 5627 5623 5617 5608 5601 5594 5589 5586 5581 5576 5574 5573 5573 5569 5565 5562 5557 5555 5553 5546 5542 5540 5537 5535 5528
5636 5633 5632 5622 5619 5618 5614 5613 5611 5608 5600 5594 5588 5583 5578 5570 5565 5562 5558 5556 5554 5549 5541 5538 5535 5536 5532 5527 5521 5518 5519 5515